(°C)
(°C)
-1°
-0°
-0°
JI
JI
JI
JI
JI
JI
JJI
(km/h)
7-16
6-16
7-15
7-15
7-15
8-15
9-14
(mm)
0
0
0
0
0
0
0
(%)
0
0
0
0
0
0
0

Podizanje Sunca

/ -21.7°
sun-icon
UV 1
07:07
17:42
Rastući mesec (144°)
17:11
02:46

METAR za 53.5°S 50.15°I (UWWW)

Vreme Uslovi Temperatura/
Tačka rose
Vetar Vidljivost Prognoza Oblaci Pritisak Promena Neobrađeno
VFR 3°C / -2°C 180º 8kt >10km - Clouds and Visibility OK 1020 No Significant change UWWW 170000Z 18004MPS CAVOK 03/M02 Q1020 R15/CLRD60 NOSIG RMK QFE753/1004
VFR 5°C / -2°C 210º 8kt >10km - Clouds and Visibility OK 1020 No Significant change UWWW 162330Z 21004MPS CAVOK 05/M02 Q1020 R15/CLRD60 NOSIG RMK QFE753/1005
VFR 4°C / -2°C 200º 6kt >10km - Clouds and Visibility OK 1020 No Significant change UWWW 162300Z 20003MPS CAVOK 04/M02 Q1020 R15/CLRD60 NOSIG RMK QFE753/1005
VFR 3°C / -2°C 200º 2kt >10km - Clouds and Visibility OK 1020 No Significant change UWWW 162230Z 20001MPS CAVOK 03/M02 Q1020 R15/CLRD60 NOSIG RMK QFE754/1005
VFR 3°C / -2°C 210º 6kt >10km - Clouds and Visibility OK 1020 No Significant change UWWW 162200Z 21003MPS CAVOK 03/M02 Q1020 R15/CLRD60 NOSIG RMK QFE754/1005
VFR 3°C / -2°C 210º 6kt >10km - Clouds and Visibility OK 1020 No Significant change UWWW 162130Z 21003MPS CAVOK 03/M02 Q1020 R15/CLRD60 NOSIG RMK QFE754/1005
VFR 3°C / -2°C 220º 6kt >10km - Clouds and Visibility OK 1021 No Significant change UWWW 162100Z 22003MPS CAVOK 03/M02 Q1021 R15/CLRD60 NOSIG RMK QFE754/1005
VFR 2°C / -2°C 220º 6kt >10km - Clouds and Visibility OK 1021 No Significant change UWWW 162030Z 22003MPS CAVOK 02/M02 Q1021 R15/CLRD60 NOSIG RMK QFE754/1005
VFR 3°C / -2°C 220º 4kt >10km - Clouds and Visibility OK 1021 No Significant change UWWW 162000Z 22002MPS CAVOK 03/M02 Q1021 R15/CLRD60 NOSIG RMK QFE754/1005
VFR 3°C / -2°C 210º 6kt >10km - Clouds and Visibility OK 1021 No Significant change UWWW 161930Z 21003MPS CAVOK 03/M02 Q1021 R15/CLRD60 NOSIG RMK QFE754/1005
VFR 4°C / -2°C 190º 4kt >10km - Clouds and Visibility OK 1021 No Significant change UWWW 161900Z 19002MPS CAVOK 04/M02 Q1021 R15/CLRD60 NOSIG RMK QFE754/1005
VFR 3°C / -3°C 210º 4kt >10km - Clouds and Visibility OK 1021 No Significant change UWWW 161830Z 21002MPS CAVOK 03/M03 Q1021 R15/CLRD60 NOSIG RMK QFE754/1005
VFR 5°C / -2°C 240º 4kt >10km - Clouds and Visibility OK 1021 No Significant change UWWW 161800Z 24002MPS CAVOK 05/M02 Q1021 R15/CLRD60 NOSIG RMK QFE754/1006
VFR 3°C / -3°C 230º 4kt >10km - Clouds and Visibility OK 1021 No Significant change UWWW 161730Z 23002MPS CAVOK 03/M03 Q1021 R15/CLRD60 NOSIG RMK QFE754/1006
VFR 4°C / -3°C 210º 6kt >10km - Clouds and Visibility OK 1021 No Significant change UWWW 161700Z 21003MPS CAVOK 04/M03 Q1021 R15/CLRD60 NOSIG RMK QFE754/1006
VFR 5°C / -3°C 210º 6kt >10km - Clouds and Visibility OK 1021 No Significant change UWWW 161630Z 21003MPS CAVOK 05/M03 Q1021 R15/CLRD60 NOSIG RMK QFE754/1006
VFR 6°C / -3°C 210º 6kt >10km - Clouds and Visibility OK 1021 No Significant change UWWW 161600Z 21003MPS CAVOK 06/M03 Q1021 R15/CLRD60 NOSIG RMK QFE754/1006
VFR 6°C / -3°C 210º 6kt >10km - Clouds and Visibility OK 1021 No Significant change UWWW 161530Z 21003MPS CAVOK 06/M03 Q1021 R15/CLRD60 NOSIG RMK QFE754/1006
VFR 7°C / -3°C 220º 6kt >10km - Clouds and Visibility OK 1022 No Significant change UWWW 161500Z 22003MPS CAVOK 07/M03 Q1022 R15/CLRD60 NOSIG RMK QFE754/1006
VFR 5°C / -3°C 220º 4kt >10km - Clouds and Visibility OK 1022 No Significant change UWWW 161430Z 22002MPS CAVOK 05/M03 Q1022 R15/CLRD60 NOSIG RMK QFE754/1006
VFR 8°C / -2°C 210º 6kt >10km - Clouds and Visibility OK 1022 No Significant change UWWW 161400Z 21003MPS CAVOK 08/M02 Q1022 R15/CLRD60 NOSIG RMK QFE754/1006
VFR 8°C / -2°C 220º 6kt >10km - Clouds and Visibility OK 1022 No Significant change UWWW 161330Z 22003MPS CAVOK 08/M02 Q1022 R15/CLRD60 NOSIG RMK QFE755/1006
VFR 10°C / -2°C 230º variable 210º to 270º 8kt >10km - Clouds and Visibility OK 1022 No Significant change UWWW 161300Z 23004MPS 210V270 CAVOK 10/M02 Q1022 R15/CLRD60 NOSIG RMK QFE755/1006
VFR 11°C / -2°C 240º 10kt >10km - Clouds and Visibility OK 1022 No Significant change UWWW 161230Z 24005MPS CAVOK 11/M02 Q1022 R15/CLRD60 NOSIG RMK QFE755/1007

VFR

3°C / -2°C

[Više]
Vetar 180º 8kt
Vidljivost >10km
Prognoza -
Oblaci Clouds and Visibility OK
Pritisak 1020
Promena No Significant change
Neobrađeno UWWW 170000Z 18004MPS CAVOK 03/M02 Q1020 R15/CLRD60 NOSIG RMK QFE753/1004

VFR

5°C / -2°C

[Više]
Vetar 210º 8kt
Vidljivost >10km
Prognoza -
Oblaci Clouds and Visibility OK
Pritisak 1020
Promena No Significant change
Neobrađeno UWWW 162330Z 21004MPS CAVOK 05/M02 Q1020 R15/CLRD60 NOSIG RMK QFE753/1005

VFR

4°C / -2°C

[Više]
Vetar 200º 6kt
Vidljivost >10km
Prognoza -
Oblaci Clouds and Visibility OK
Pritisak 1020
Promena No Significant change
Neobrađeno UWWW 162300Z 20003MPS CAVOK 04/M02 Q1020 R15/CLRD60 NOSIG RMK QFE753/1005

VFR

3°C / -2°C

[Više]
Vetar 200º 2kt
Vidljivost >10km
Prognoza -
Oblaci Clouds and Visibility OK
Pritisak 1020
Promena No Significant change
Neobrađeno UWWW 162230Z 20001MPS CAVOK 03/M02 Q1020 R15/CLRD60 NOSIG RMK QFE754/1005

VFR

3°C / -2°C

[Više]
Vetar 210º 6kt
Vidljivost >10km
Prognoza -
Oblaci Clouds and Visibility OK
Pritisak 1020
Promena No Significant change
Neobrađeno UWWW 162200Z 21003MPS CAVOK 03/M02 Q1020 R15/CLRD60 NOSIG RMK QFE754/1005

VFR

3°C / -2°C

[Više]
Vetar 210º 6kt
Vidljivost >10km
Prognoza -
Oblaci Clouds and Visibility OK
Pritisak 1020
Promena No Significant change
Neobrađeno UWWW 162130Z 21003MPS CAVOK 03/M02 Q1020 R15/CLRD60 NOSIG RMK QFE754/1005

VFR

3°C / -2°C

[Više]
Vetar 220º 6kt
Vidljivost >10km
Prognoza -
Oblaci Clouds and Visibility OK
Pritisak 1021
Promena No Significant change
Neobrađeno UWWW 162100Z 22003MPS CAVOK 03/M02 Q1021 R15/CLRD60 NOSIG RMK QFE754/1005

VFR

2°C / -2°C

[Više]
Vetar 220º 6kt
Vidljivost >10km
Prognoza -
Oblaci Clouds and Visibility OK
Pritisak 1021
Promena No Significant change
Neobrađeno UWWW 162030Z 22003MPS CAVOK 02/M02 Q1021 R15/CLRD60 NOSIG RMK QFE754/1005

VFR

3°C / -2°C

[Više]
Vetar 220º 4kt
Vidljivost >10km
Prognoza -
Oblaci Clouds and Visibility OK
Pritisak 1021
Promena No Significant change
Neobrađeno UWWW 162000Z 22002MPS CAVOK 03/M02 Q1021 R15/CLRD60 NOSIG RMK QFE754/1005

VFR

3°C / -2°C

[Više]
Vetar 210º 6kt
Vidljivost >10km
Prognoza -
Oblaci Clouds and Visibility OK
Pritisak 1021
Promena No Significant change
Neobrađeno UWWW 161930Z 21003MPS CAVOK 03/M02 Q1021 R15/CLRD60 NOSIG RMK QFE754/1005

VFR

4°C / -2°C

[Više]
Vetar 190º 4kt
Vidljivost >10km
Prognoza -
Oblaci Clouds and Visibility OK
Pritisak 1021
Promena No Significant change
Neobrađeno UWWW 161900Z 19002MPS CAVOK 04/M02 Q1021 R15/CLRD60 NOSIG RMK QFE754/1005

VFR

3°C / -3°C

[Više]
Vetar 210º 4kt
Vidljivost >10km
Prognoza -
Oblaci Clouds and Visibility OK
Pritisak 1021
Promena No Significant change
Neobrađeno UWWW 161830Z 21002MPS CAVOK 03/M03 Q1021 R15/CLRD60 NOSIG RMK QFE754/1005

VFR

5°C / -2°C

[Više]
Vetar 240º 4kt
Vidljivost >10km
Prognoza -
Oblaci Clouds and Visibility OK
Pritisak 1021
Promena No Significant change
Neobrađeno UWWW 161800Z 24002MPS CAVOK 05/M02 Q1021 R15/CLRD60 NOSIG RMK QFE754/1006

VFR

3°C / -3°C

[Više]
Vetar 230º 4kt
Vidljivost >10km
Prognoza -
Oblaci Clouds and Visibility OK
Pritisak 1021
Promena No Significant change
Neobrađeno UWWW 161730Z 23002MPS CAVOK 03/M03 Q1021 R15/CLRD60 NOSIG RMK QFE754/1006

VFR

4°C / -3°C

[Više]
Vetar 210º 6kt
Vidljivost >10km
Prognoza -
Oblaci Clouds and Visibility OK
Pritisak 1021
Promena No Significant change
Neobrađeno UWWW 161700Z 21003MPS CAVOK 04/M03 Q1021 R15/CLRD60 NOSIG RMK QFE754/1006

VFR

5°C / -3°C

[Više]
Vetar 210º 6kt
Vidljivost >10km
Prognoza -
Oblaci Clouds and Visibility OK
Pritisak 1021
Promena No Significant change
Neobrađeno UWWW 161630Z 21003MPS CAVOK 05/M03 Q1021 R15/CLRD60 NOSIG RMK QFE754/1006

VFR

6°C / -3°C

[Više]
Vetar 210º 6kt
Vidljivost >10km
Prognoza -
Oblaci Clouds and Visibility OK
Pritisak 1021
Promena No Significant change
Neobrađeno UWWW 161600Z 21003MPS CAVOK 06/M03 Q1021 R15/CLRD60 NOSIG RMK QFE754/1006

VFR

6°C / -3°C

[Više]
Vetar 210º 6kt
Vidljivost >10km
Prognoza -
Oblaci Clouds and Visibility OK
Pritisak 1021
Promena No Significant change
Neobrađeno UWWW 161530Z 21003MPS CAVOK 06/M03 Q1021 R15/CLRD60 NOSIG RMK QFE754/1006

VFR

7°C / -3°C

[Više]
Vetar 220º 6kt
Vidljivost >10km
Prognoza -
Oblaci Clouds and Visibility OK
Pritisak 1022
Promena No Significant change
Neobrađeno UWWW 161500Z 22003MPS CAVOK 07/M03 Q1022 R15/CLRD60 NOSIG RMK QFE754/1006

VFR

5°C / -3°C

[Više]
Vetar 220º 4kt
Vidljivost >10km
Prognoza -
Oblaci Clouds and Visibility OK
Pritisak 1022
Promena No Significant change
Neobrađeno UWWW 161430Z 22002MPS CAVOK 05/M03 Q1022 R15/CLRD60 NOSIG RMK QFE754/1006

VFR

8°C / -2°C

[Više]
Vetar 210º 6kt
Vidljivost >10km
Prognoza -
Oblaci Clouds and Visibility OK
Pritisak 1022
Promena No Significant change
Neobrađeno UWWW 161400Z 21003MPS CAVOK 08/M02 Q1022 R15/CLRD60 NOSIG RMK QFE754/1006

VFR

8°C / -2°C

[Više]
Vetar 220º 6kt
Vidljivost >10km
Prognoza -
Oblaci Clouds and Visibility OK
Pritisak 1022
Promena No Significant change
Neobrađeno UWWW 161330Z 22003MPS CAVOK 08/M02 Q1022 R15/CLRD60 NOSIG RMK QFE755/1006

VFR

10°C / -2°C

[Više]
Vetar 230º variable 210º to 270º 8kt
Vidljivost >10km
Prognoza -
Oblaci Clouds and Visibility OK
Pritisak 1022
Promena No Significant change
Neobrađeno UWWW 161300Z 23004MPS 210V270 CAVOK 10/M02 Q1022 R15/CLRD60 NOSIG RMK QFE755/1006

VFR

11°C / -2°C

[Više]
Vetar 240º 10kt
Vidljivost >10km
Prognoza -
Oblaci Clouds and Visibility OK
Pritisak 1022
Promena No Significant change
Neobrađeno UWWW 161230Z 24005MPS CAVOK 11/M02 Q1022 R15/CLRD60 NOSIG RMK QFE755/1007

TAF za 53.5°S 50.15°I (UWWW)

From till


Maximum Temperature 12ºC on . Minimum Temperature 3ºC on .
From till Wind 190º 6kt. Visibility 10km or more. Broken Clouds 1600ft.
Temporarly from till Visibility 2000m. Rain Mist . Broken Clouds 700ft.
Temporarly from till Visibility 2000m. Rain Mist . Overcast 700ft.

Neobrađeno: TAF UWWW 162250Z 1700/1724 19003MPS 9999 BKN016 TX12/1711Z TN03/1702Z TEMPO 1700/1706 2000 RA BR BKN007 TEMPO 1715/1724 2000 RA BR OVC007

Trenutni satelitski snimci i slike kiše za 53.5°S 50.15°I

Marker lokacije postavljen je na 53.5°S 50.15°I. [Više]

Satelitski snimci u realnom vremenu kombinuju vidljivu svetlost tokom dana sa infracrvenim zračenjem tokom noći. Noću slika nije tamna jer infracrveno zračenje može otkriti temperaturne razlike. Nažalost, niski oblaci i magla teško se mogu razlikovati od temperature zemlje tako da mogu biti skoro nevidljivi tokom noći. Meteosat satelitski snimci za Evropu se ažuriraju u realnom vremenu na svakih 5 minuta. Slnimci GOES-16/GOES-17 (Severna i Južna Amerika) and Himawari (Azia) ažuriraju se na svakih 10 minuta.

Autorsko pravo 2021 EUMETSAT / meteoblue. / Autorsko pravo 2021 meteoblue

Radar i padavine kratka prognoza za 53.5°S 50.15°I

Rominjati
Svjetlo
Umjereno
Teška
Vrlo teško
Zdravo

Marker lokacije postavljen je na 53.5°S 50.15°I. Ova animacija prikazuje radar padavina za poslednji sat, kao i 1h prognozu. Пљусак кише или слаб снег може бити невидљив за радар. Интензитет падавина је кодиран у боји, у распону од светло плаве до наранџасте.